Palestine, IL

11:32 PM CDT on September 27, 2016 (GMT -0500)
Robinson Municipal

Weather History for KRSV - January, 2012

Change the Weather History Date:

Wednesday, January 4, 2012

  Actual Average (KLWV) Record (KLWV)
Temperature  
Mean Temperature 36 °F 31 °F  
Max Temperature 45 °F 39 °F 66 °F (1997)
Min Temperature 28 °F 23 °F 0 °F (1999)
Degree Days  
Heating Degree Days 28 34  
Month to date heating degree days 136  
Since 1 July heating degree days 1935  
Cooling Degree Days 0 0  
Month to date cooling degree days 0  
Year to date cooling degree days 0  
Moisture  
Dew Point 21 °F    
Average Humidity 55    
Maximum Humidity 82    
Minimum Humidity 40    
Precipitation  
Precipitation 0.00 in 0.10 in 1.90 in (2004)
Month to date precipitation 0.38  
Year to date precipitation 0.38  
Sea Level Pressure  
Sea Level Pressure 30.10 in    
Wind  
Wind Speed 11 mph (SW)    
Max Wind Speed 15 mph    
Max Gust Speed 20 mph    
Visibility 10 miles    
Events      
T = Trace of Precipitation, MM = Missing Value Source: NWS Daily Summary

Daily Weather History Graph

Daily Weather History Graph

Search for Another Location

Airport or City:

Trip Planner

Search our weather history database for the weather conditions in past years. The results will help you decide how hot, cold, wet, or windy it might be!

Date:

Astronomy

Jan. 04, 2012 Rise Set
Actual Time 7:09 AM CST 4:41 PM CST
Civil Twilight 6:40 AM CST 5:10 PM CST
Nautical Twilight 6:06 AM CST 5:44 PM CST
Astronomical Twilight 5:34 AM CST 6:16 PM CST
Moon 1:03 PM CST (1/4) 2:58 AM CST (1/4)
Length of Visible Light 10h 30m
Length of Day
9h 31m
Waxing Gibbous, 81% of the Moon is Illuminated
Jan 4
Waxing Gibbous
Jan 9
Full
Jan 16
Last Quarter
Jan 23
New
Jan 30
First Quarter

Hourly Weather History & Observations

Time (CST) Temp. Windchill Dew Point Humidity Pressure Visibility Wind Dir Wind Speed Gust Speed Precip Events Conditions
12:15 AM 28.9 °F 19.2 °F 12.9 °F 51% 30.19 in 10.0 mi South 11.5 mph - N/A   Clear
12:35 AM 28.9 °F 19.8 °F 12.9 °F 51% 30.19 in 10.0 mi South 10.4 mph - N/A   Clear
12:55 AM 28.9 °F 19.2 °F 12.4 °F 50% 30.18 in 10.0 mi South 11.5 mph 17.3 mph N/A   Clear
1:15 AM 28.8 °F 19.5 °F 12.7 °F 51% 30.17 in 10.0 mi South 10.4 mph - N/A   Clear
1:35 AM 29.3 °F 19.6 °F 12.6 °F 50% 30.17 in 10.0 mi South 11.5 mph 17.3 mph N/A   Clear
1:55 AM 29.1 °F 19.4 °F 12.7 °F 50% 30.16 in 10.0 mi South 11.5 mph 16.1 mph N/A   Clear
2:15 AM 29.1 °F 18.9 °F 12.7 °F 50% 30.15 in 10.0 mi South 12.7 mph 19.6 mph N/A   Clear
2:55 AM 29.5 °F 20.4 °F 12.9 °F 50% 30.13 in 10.0 mi South 10.4 mph - N/A   Clear
3:15 AM 29.1 °F 20.6 °F 13.1 °F 51% 30.12 in 10.0 mi South 9.2 mph - N/A   Clear
3:35 AM 29.1 °F 20.0 °F 13.3 °F 52% 30.12 in 10.0 mi South 10.4 mph - N/A   Clear
3:55 AM 29.3 °F 20.8 °F 13.6 °F 52% 30.11 in 10.0 mi South 9.2 mph - N/A   Clear
4:15 AM 29.1 °F 20.6 °F 14.0 °F 53% 30.11 in 10.0 mi South 9.2 mph - N/A   Clear
4:35 AM 29.7 °F 21.3 °F 14.2 °F 53% 30.11 in 10.0 mi South 9.2 mph - N/A   Clear
5:15 AM 30.2 °F 21.3 °F 15.1 °F 53% 30.10 in 10.0 mi South 10.4 mph - N/A   Clear
5:35 AM 30.9 °F 21.2 °F 15.3 °F 52% 30.10 in 10.0 mi South 12.7 mph - N/A   Clear
6:15 AM 30.9 °F 21.7 °F 16.0 °F 54% 30.10 in 10.0 mi South 11.5 mph - N/A   Clear
6:35 AM 31.1 °F 22.4 °F 16.5 °F 55% 30.10 in 10.0 mi South 10.4 mph - N/A   Clear
6:55 AM 31.6 °F 23.1 °F 16.5 °F 54% 30.09 in 10.0 mi South 10.4 mph - N/A   Clear
7:15 AM 31.8 °F 23.3 °F 16.7 °F 54% 30.09 in 10.0 mi South 10.4 mph - N/A   Mostly Cloudy
7:35 AM 31.8 °F 22.8 °F 17.1 °F 55% 30.09 in 10.0 mi South 11.5 mph - N/A   Scattered Clouds
8:15 AM 32.2 °F 22.7 °F 17.8 °F 55% 30.09 in 10.0 mi South 12.7 mph 18.4 mph N/A   Mostly Cloudy
8:35 AM 32.5 °F 22.7 °F 18.0 °F 55% 30.08 in 10.0 mi South 13.8 mph 19.6 mph N/A   Mostly Cloudy
8:55 AM 32.9 °F 22.8 °F 18.3 °F 55% 30.08 in 10.0 mi South 15.0 mph - N/A   Scattered Clouds
9:15 AM 32.9 °F 23.2 °F 18.5 °F 55% 30.09 in 10.0 mi SSW 13.8 mph 19.6 mph N/A   Clear
9:35 AM 35.6 °F 27.1 °F 18.9 °F 51% 30.09 in 10.0 mi SSW 12.7 mph 19.6 mph N/A   Clear
9:55 AM 36.7 °F 28.0 °F 19.0 °F 49% 30.09 in 10.0 mi SSW 13.8 mph - N/A   Clear
10:15 AM 37.6 °F 29.1 °F 19.2 °F 48% 30.09 in 10.0 mi SSW 13.8 mph - N/A   Clear
10:35 AM 38.8 °F 30.8 °F 19.4 °F 46% 30.10 in 10.0 mi SW 13.8 mph - N/A   Clear
10:55 AM 40.1 °F 32.7 °F 20.3 °F 45% 30.09 in 10.0 mi SW 12.7 mph - N/A   Clear
11:15 AM 41.0 °F 34.7 °F 21.2 °F 45% 30.08 in 10.0 mi SW 10.4 mph - N/A   Clear
11:35 AM 41.2 °F 34.5 °F 21.2 °F 45% 30.06 in 10.0 mi SW 11.5 mph - N/A   Clear
11:55 AM 41.9 °F 35.0 °F 21.2 °F 44% 30.05 in 10.0 mi SW 12.7 mph - N/A   Clear
12:35 PM 43.7 °F 38.6 °F 21.6 °F 41% 30.04 in 10.0 mi SW 9.2 mph 16.1 mph N/A   Clear
12:55 PM 44.6 °F 39.2 °F 21.7 °F 40% 30.03 in 10.0 mi SW 10.4 mph - N/A   Clear
1:15 PM 44.8 °F 39.9 °F 21.7 °F 40% 30.02 in 10.0 mi SSW 9.2 mph - N/A   Clear
1:35 PM 45.0 °F 39.7 °F 21.6 °F 40% 30.03 in 10.0 mi SSW 10.4 mph - N/A   Clear
1:55 PM 45.5 °F 39.9 °F 22.1 °F 40% 30.03 in 10.0 mi SSW 11.5 mph - N/A   Clear
2:15 PM 45.9 °F 41.2 °F 22.8 °F 40% 30.04 in 10.0 mi SW 9.2 mph - N/A   Clear
3:15 PM 45.0 °F 39.7 °F 23.9 °F 44% 30.06 in 10.0 mi WSW 10.4 mph - N/A   Clear
3:35 PM 44.4 °F 39.5 °F 24.4 °F 45% 30.05 in 10.0 mi SSW 9.2 mph - N/A   Clear
3:55 PM 43.9 °F 38.8 °F 24.6 °F 47% 30.06 in 10.0 mi SW 9.2 mph - N/A   Clear
4:15 PM 43.7 °F 39.1 °F 25.2 °F 48% 30.07 in 10.0 mi SW 8.1 mph - N/A   Clear
4:35 PM 42.1 °F 37.7 °F 25.3 °F 52% 30.08 in 10.0 mi SW 6.9 mph - N/A   Clear
4:55 PM 39.4 °F 35.2 °F 25.3 °F 57% 30.08 in 10.0 mi SSW 5.8 mph - N/A   Clear
5:15 PM 37.4 °F 32.1 °F 25.7 °F 63% 30.09 in 10.0 mi SSW 6.9 mph - N/A   Clear
5:35 PM 40.1 °F 34.7 °F 26.6 °F 59% 30.10 in 10.0 mi SW 8.1 mph - N/A   Clear
5:55 PM 40.8 °F 35.6 °F 26.6 °F 57% 30.10 in 10.0 mi SW 8.1 mph - N/A   Clear
6:15 PM 38.8 °F 32.1 °F 27.0 °F 62% 30.11 in 10.0 mi WSW 10.4 mph - N/A   Clear
6:55 PM 39.4 °F 33.2 °F 27.9 °F 63% 30.12 in 10.0 mi West 9.2 mph - N/A   Clear
7:15 PM 39.7 °F 33.2 °F 27.9 °F 63% 30.12 in 10.0 mi West 10.4 mph - N/A   Clear
7:35 PM 39.0 °F 32.8 °F 28.2 °F 65% 30.12 in 10.0 mi West 9.2 mph - N/A   Clear
7:55 PM 38.1 °F 31.2 °F 28.2 °F 68% 30.13 in 10.0 mi West 10.4 mph - N/A   Clear
8:15 PM 37.9 °F 30.9 °F 27.9 °F 67% 30.13 in 10.0 mi West 10.4 mph - N/A   Clear
8:55 PM 36.5 °F 30.3 °F 27.5 °F 70% 30.14 in 10.0 mi West 8.1 mph - N/A   Clear
9:15 PM 35.6 °F 29.2 °F 27.5 °F 72% 30.15 in 10.0 mi West 8.1 mph - N/A   Clear
9:55 PM 33.8 °F 27.7 °F 27.5 °F 78% 30.16 in 10.0 mi West 6.9 mph - N/A   Clear
10:15 PM 32.4 °F 26.0 °F 26.4 °F 79% 30.15 in 10.0 mi WSW 6.9 mph - N/A   Clear
10:35 PM 31.6 °F 26.0 °F 26.1 °F 80% 30.15 in 10.0 mi West 5.8 mph - N/A   Clear
10:55 PM 30.9 °F 25.2 °F 25.5 °F 80% 30.15 in 10.0 mi WSW 5.8 mph - N/A   Clear
11:15 PM 30.4 °F 23.6 °F 25.2 °F 81% 30.14 in 10.0 mi WSW 6.9 mph - N/A   Clear
11:35 PM 31.3 °F 25.6 °F 26.4 °F 82% 30.14 in 10.0 mi WSW 5.8 mph - N/A   Clear
11:55 PM 32.0 °F 26.4 °F 27.1 °F 82% 30.14 in 10.0 mi WSW 5.8 mph - N/A   Clear